Wind_Speed
24 26 27 27 27 27 27 26 26 25 27 28 28 28 28 28 27 27 27 26 26 27 27 27 27 27 27 27 27 26 26 26 25 24 24 23 23 22 22 23 23 23 23 24 24 25 26 26 27 27 28 28 28 28 27 27 27 27 27 27 26 26 26 26 26 26 25 25 25 25 25 24 24 24 24 23 23 22 22 22 21 21 21 22 22 22
26 27 27 27 26 25 26 26 25 25 26 28 28 29 28 28 27 27 27 26 26 25 25 25 26 26 26 26 26 27 27 27 27 26 25 25 24 24 24 24 24 24 23 23 23 24 24 25 25 26 26 26 27 27 27 27 27 27 27 27 27 27 27 27 27 27 27 27 26 26 25 25 25 25 25 24 23 22 22 21 21 21 21 21 22 22
27 27 27 26 25 24 25 26 26 26 27 28 28 28 27 27 27 26 26 26 25 24 24 24 25 25 26 26 26 27 28 28 27 27 26 26 25 26 26 26 26 25 24 24 23 23 23 24 24 24 24 25 25 25 26 26 26 25 25 26 26 26 26 26 26 27 26 26 26 25 25 25 25 25 25 25 25 24 24 23 23 23 22 22 22 22
26 26 26 26 25 25 25 26 27 28 28 28 27 27 26 25 25 25 25 25 25 24 24 24 24 25 25 26 27 28 28 28 27 27 26 26 26 26 27 27 27 27 26 25 24 23 23 23 23 23 23 23 24 24 24 24 24 24 24 24 24 24 24 24 24 24 24 24 24 24 24 24 24 24 24 24 24 24 24 24 24 23 23 23 23 22
26 25 26 26 26 26 25 26 27 27 27 26 26 25 24 24 24 24 25 25 25 25 25 24 24 25 25 26 27 28 28 27 27 26 25 25 26 26 27 28 28 27 26 25 24 23 23 22 22 22 22 22 23 23 23 23 23 23 23 23 23 23 23 22 23 22 22 23 23 23 23 23 23 23 23 22 22 22 22 22 22 22 22 22 22 22
28 26 26 26 26 27 27 27 27 26 26 25 24 24 24 24 25 25 25 25 25 25 25 25 25 25 26 27 27 27 27 26 25 24 24 24 25 26 26 27 27 27 26 25 24 23 23 22 21 21 21 21 21 22 22 22 22 22 22 22 22 22 21 21 21 22 22 22 22 22 22 22 22 22 22 21 21 21 20 20 21 21 21 21 21 21
29 27 26 26 27 27 27 27 26 24 24 24 24 24 24 25 26 26 26 26 26 26 27 26 26 26 26 27 27 26 26 25 23 23 23 23 24 25 26 27 27 26 25 25 24 24 23 21 20 19 19 19 20 20 21 21 21 21 22 21 21 21 21 21 21 21 21 22 22 22 22 22 22 21 21 21 20 20 20 20 20 20 20 20 20 20
30 29 27 27 27 27 27 25 23 22 22 23 24 25 26 26 26 27 27 27 27 27 27 27 26 25 25 26 27 27 26 24 22 22 22 23 25 26 27 28 27 26 25 24 24 24 22 20 18 17 17 17 18 19 19 19 20 21 21 21 21 21 20 20 20 20 21 21 21 21 21 21 21 21 21 20 20 20 20 20 20 20 20 20 20 19
29 29 28 27 26 26 26 25 23 22 22 23 25 26 27 28 28 28 27 26 25 25 25 25 25 25 25 25 27 28 28 25 22 21 23 24 27 28 29 29 27 26 24 24 24 23 22 20 19 18 18 18 18 18 18 18 18 19 20 21 21 21 21 20 20 20 20 20 20 20 20 19 19 19 19 19 19 19 19 19 19 19 19 19 19 19
29 28 28 27 26 25 25 26 25 23 24 25 26 27 28 28 28 27 26 25 24 24 23 23 23 24 25 26 28 29 29 25 22 22 24 26 28 29 28 27 26 25 24 23 23 22 21 20 20 20 20 20 20 19 18 17 17 18 19 19 20 20 20 21 21 21 21 20 20 19 19 18 18 18 18 18 18 19 19 19 19 19 18 18 18 18
28 27 26 26 26 25 25 26 26 26 27 28 28 27 26 25 25 25 26 26 25 23 22 21 22 23 26 28 30 30 28 24 22 23 25 27 27 26 25 25 24 24 24 22 21 19 19 19 20 21 22 23 22 21 19 18 17 17 17 18 18 18 19 19 20 21 22 22 22 21 20 20 19 18 18 18 18 18 18 18 18 18 18 18 18 18
26 26 26 26 26 26 26 27 29 30 29 28 27 25 23 21 21 22 24 25 25 24 22 22 23 25 29 33 34 30 24 21 22 24 26 26 25 23 22 22 22 22 22 20 18 17 17 17 18 20 23 24 24 22 20 19 18 18 17 17 17 17 17 18 19 20 21 22 23 23 23 22 22 21 21 20 19 19 19 18 18 18 18 18 18 18
26 27 27 27 28 28 28 29 29 28 26 24 23 22 23 22 22 22 24 26 26 24 23 24 28 32 35 35 31 27 22 22 23 24 24 23 21 20 20 20 20 20 19 17 16 15 15 16 18 20 23 24 25 24 22 21 21 20 20 19 18 18 18 18 18 19 20 21 22 23 23 24 24 23 22 21 21 20 19 19 19 19 19 19 19 18
27 27 28 28 27 27 27 26 25 24 23 22 24 26 27 28 28 29 31 31 30 29 29 32 36 39 39 35 31 26 24 24 23 23 22 21 20 20 20 20 19 17 15 15 15 15 16 17 19 21 23 25 25 25 25 25 25 24 23 23 21 20 20 20 20 20 20 21 21 22 23 23 24 24 24 23 22 21 20 20 20 20 20 20 20 19
27 27 27 27 26 25 25 24 25 25 25 25 26 28 30 32 33 34 34 34 34 34 35 36 38 38 35 32 29 26 24 23 22 22 22 22 22 21 21 20 20 19 19 20 20 21 21 21 22 22 23 24 25 26 26 27 28 28 27 26 25 23 22 22 22 22 22 22 22 21 21 22 22 23 23 23 22 22 21 21 21 21 21 21 20 20
27 26 27 27 27 26 25 26 26 27 27 27 28 29 30 30 30 28 28 29 31 32 33 33 32 31 29 28 26 24 22 21 20 20 21 22 22 21 21 22 25 27 28 28 28 27 26 26 25 24 23 24 24 25 26 27 28 29 28 28 27 26 25 24 24 24 24 24 23 23 22 21 21 22 22 22 22 21 21 20 20 20 20 20 20 20
27 27 27 27 27 27 26 26 27 27 27 28 29 29 28 27 26 26 26 28 29 29 27 26 26 26 27 27 24 21 20 19 18 19 21 23 24 25 27 29 31 32 32 31 29 29 28 28 27 27 26 25 24 24 25 25 26 27 27 28 27 27 26 26 25 25 25 25 25 25 23 22 21 21 21 21 21 21 21 21 20 20 19 19 19 19
29 29 29 29 28 28 27 28 29 28 28 27 28 28 27 27 27 28 29 28 28 27 26 26 26 27 28 29 25 21 18 19 21 24 27 30 32 33 33 32 31 30 29 29 28 28 28 28 28 28 28 26 25 24 24 25 25 26 26 26 26 27 27 27 26 26 26 26 26 26 25 23 22 21 21 21 21 21 21 21 21 20 19 19 19 19
31 31 32 33 33 33 34 34 32 29 27 27 27 28 28 28 28 29 28 28 29 30 31 32 30 28 26 23 22 23 25 27 29 30 30 30 30 30 29 27 25 25 26 27 27 27 28 28 28 27 27 25 24 23 23 23 24 25 26 27 28 29 28 27 27 27 27 27 27 26 25 24 22 21 21 21 21 21 21 21 21 20 19 18 18 19
32 33 33 33 35 36 36 33 30 27 26 27 28 29 30 30 30 30 32 33 34 33 32 30 28 25 24 25 27 29 30 29 28 27 26 26 26 26 26 24 23 24 25 26 26 27 26 27 27 27 25 24 23 23 23 23 23 24 25 27 28 29 29 29 28 28 27 27 27 26 25 23 22 21 21 21 21 21 21 21 21 20 19 18 18 18
32 32 31 30 31 33 33 31 29 29 30 31 32 32 33 34 35 36 36 33 29 25 23 22 24 26 29 30 30 29 28 26 25 25 26 27 27 26 24 22 21 22 23 24 25 25 25 25 26 26 25 24 24 24 24 25 25 25 25 26 27 28 28 28 28 28 27 27 26 26 25 23 22 21 21 21 20 21 21 21 20 19 18 17 17 18
31 31 29 28 29 31 32 32 32 32 33 34 34 35 37 37 36 34 29 23 21 23 27 30 32 33 32 31 30 29 28 26 25 25 25 26 26 24 22 20 20 21 22 24 24 25 25 25 25 26 25 25 25 25 26 25 25 25 25 25 26 26 27 27 28 28 27 27 26 26 25 24 22 22 21 21 20 21 20 20 20 19 17 17 17 17
29 29 27 28 31 33 35 35 34 33 32 32 34 36 37 36 32 26 21 22 26 30 32 34 34 33 31 29 29 29 28 26 24 23 23 24 24 23 21 19 19 21 23 25 26 26 26 26 26 26 26 25 25 25 25 25 25 26 26 27 27 28 28 28 29 29 29 28 27 26 25 24 23 22 21 21 21 20 20 20 20 19 17 17 16 17
27 26 26 29 33 36 36 35 34 32 32 33 35 36 35 31 27 24 27 31 33 33 33 33 31 30 29 29 28 27 25 23 21 21 21 21 23 23 21 20 21 23 26 27 27 26 26 26 26 26 25 26 26 26 27 27 28 28 29 29 29 29 29 29 29 29 29 28 28 27 26 25 24 23 22 21 20 20 20 20 20 19 18 17 17 17
26 26 28 31 34 36 36 36 35 34 34 35 35 34 29 25 25 28 31 32 31 30 29 29 28 28 29 29 28 26 24 23 21 20 20 20 21 22 23 23 24 25 27 27 26 25 24 25 25 26 26 27 27 28 28 28 28 27 27 26 26 26 26 26 26 26 27 27 27 26 25 25 24 23 22 21 20 20 20 20 20 20 19 18 18 18
25 27 29 32 34 35 35 36 36 36 36 34 30 25 22 23 27 30 31 30 29 28 28 28 29 30 30 28 27 25 24 22 20 19 19 20 22 24 25 25 25 25 25 25 25 25 25 25 26 27 27 27 27 27 26 25 24 23 23 22 21 21 21 21 21 22 24 24 23 23 23 24 23 22 21 20 19 19 20 20 20 20 19 19 19 19
27 30 32 34 34 35 35 36 36 35 32 26 21 19 21 25 28 29 29 29 28 28 29 29 30 30 30 28 26 25 23 21 20 20 20 21 23 24 25 24 23 22 23 24 25 25 25 25 26 26 26 26 25 24 22 21 21 21 22 22 21 20 19 18 17 17 17 16 16 17 19 20 20 19 19 18 18 19 19 19 19 19 19 19 19 20
32 34 35 34 33 32 32 32 30 27 23 21 21 23 25 27 27 27 28 28 27 27 27 28 28 28 28 26 25 24 22 21 20 20 20 20 21 22 23 22 22 22 23 24 25 25 24 24 24 24 23 22 21 20 19 18 19 21 23 25 26 26 24 22 19 17 14 12 12 13 16 17 17 17 17 17 17 17 18 18 18 18 18 19 19 20
35 35 34 31 29 27 25 23 22 21 22 25 26 27 27 27 26 26 26 26 25 24 24 25 25 25 25 24 24 23 22 20 19 18 17 18 19 20 21 21 21 21 22 22 23 23 22 21 20 20 19 19 19 18 18 19 20 22 24 26 27 27 27 25 24 22 20 17 14 14 16 17 17 17 16 16 16 17 17 17 17 17 18 18 19 20
33 31 29 27 25 24 23 23 24 26 27 28 27 26 26 25 25 25 25 24 23 22 22 23 23 23 23 23 23 22 20 18 17 16 16 18 19 20 21 21 20 20 20 20 21 21 21 19 18 17 17 17 18 19 20 20 21 21 23 23 24 23 23 22 21 20 20 19 18 17 18 19 19 18 18 17 17 17 17 17 17 17 18 18 19 20
29 26 25 26 26 26 27 28 28 28 27 26 24 23 23 23 24 24 24 23 23 22 22 22 23 22 22 21 21 20 19 18 18 17 18 19 20 20 21 20 20 19 18 18 18 19 20 20 19 18 18 20 21 21 21 20 20 21 21 22 22 21 21 20 19 18 18 18 18 19 19 20 20 20 20 19 19 19 18 18 18 18 18 19 19 20
26 26 26 27 27 26 26 27 26 26 25 23 22 21 20 21 23 24 24 24 23 23 22 22 22 22 22 21 21 21 21 22 22 21 19 19 19 20 20 20 19 19 19 18 18 18 19 20 21 22 22 23 22 21 21 20 20 20 21 21 21 21 20 19 18 17 17 17 17 17 18 19 20 20 21 21 20 20 20 19 19 19 19 19 20 20
27 27 27 26 25 25 24 24 24 23 23 22 20 20 21 22 23 24 24 24 24 23 22 22 22 22 22 22 23 23 24 25 24 21 18 18 18 19 20 20 20 20 20 20 19 19 20 21 22 24 24 24 23 22 21 20 20 20 20 20 20 20 20 19 18 18 17 16 16 15 15 16 17 18 19 19 19 19 19 19 19 19 19 19 20 20
27 27 27 26 25 25 24 24 23 22 21 20 20 21 22 22 22 23 24 24 24 24 23 23 23 23 23 24 24 24 25 24 22 19 17 17 18 19 20 21 21 21 21 20 20 20 20 21 22 23 23 24 23 23 22 20 20 19 19 19 19 20 20 19 19 18 17 16 15 14 14 14 14 15 16 16 17 17 17 17 17 18 18 18 18 19
26 26 26 26 25 24 24 23 22 21 20 20 21 21 21 21 22 23 24 24 25 25 25 25 24 24 24 24 24 24 25 24 21 19 18 18 19 21 22 22 22 21 20 19 19 20 20 21 22 22 23 24 24 23 22 21 20 20 19 19 19 19 19 19 18 17 16 15 14 14 14 14 14 14 14 15 16 16 17 17 17 17 17 18 18 18
25 25 24 24 23 23 22 21 20 19 18 18 18 19 20 21 22 23 24 25 25 25 25 25 24 23 22 22 22 23 24 22 21 20 19 19 20 21 22 22 21 20 19 19 19 20 21 22 22 23 23 23 23 23 22 22 22 21 21 21 20 20 19 18 17 16 16 16 16 16 16 15 14 13 13 14 14 15 16 17 18 18 19 19 19 19
23 23 23 22 22 21 21 20 19 17 16 16 17 19 21 23 24 25 25 25 24 23 22 21 20 19 18 18 19 20 20 20 20 19 18 18 18 18 19 19 19 18 17 18 19 20 21 22 23 23 23 22 22 22 23 24 23 23 23 23 22 21 20 19 17 16 16 17 18 19 18 17 15 13 12 12 12 13 15 16 17 19 20 20 21 20
21 21 21 21 21 21 20 19 17 16 16 17 19 21 23 24 25 24 23 22 21 20 19 18 17 17 16 16 16 17 18 18 18 17 16 15 15 15 16 17 17 17 17 18 19 20 22 23 24 23 23 23 23 23 24 24 24 24 24 24 23 22 21 19 18 17 16 17 18 18 17 17 15 13 12 10 10 11 12 14 15 17 19 20 21 21
20 21 20 21 21 20 18 17 16 16 17 19 21 23 24 24 23 22 21 20 19 18 17 16 16 15 14 14 14 14 15 15 15 15 14 13 13 13 14 16 17 18 18 19 20 21 22 23 24 24 24 25 25 25 25 24 24 24 24 25 24 23 21 20 18 17 16 15 15 14 15 15 15 15 14 13 12 12 12 12 12 13 15 17 19 20
19 19 20 20 20 18 16 15 15 17 19 21 23 23 23 22 21 20 19 18 18 17 16 15 14 14 14 13 14 14 15 15 15 15 14 13 13 13 14 16 18 20 20 20 21 21 22 23 24 25 26 26 25 25 25 25 25 24 24 23 22 22 21 20 19 18 15 14 13 13 13 13 14 14 15 15 14 14 14 13 12 12 13 14 16 18
17 18 20 20 20 18 16 16 17 20 21 23 23 22 21 20 19 19 19 18 17 16 15 14 13 14 14 15 15 16 16 17 17 16 15 14 13 12 13 15 17 18 18 19 20 21 21 22 24 25 26 26 27 26 26 26 25 24 22 22 21 21 21 20 19 17 15 13 12 12 12 13 13 14 15 15 15 15 14 14 14 13 13 14 14 15
18 19 20 21 20 19 19 20 21 22 22 21 21 20 19 18 18 18 18 17 16 14 14 13 13 14 14 15 15 16 16 17 16 16 14 13 12 11 12 13 13 14 15 16 18 19 20 22 23 25 26 26 26 27 27 26 24 23 22 21 21 21 20 19 17 15 14 13 12 13 13 14 16 16 16 16 15 14 14 15 15 14 14 14 14 13
19 20 20 20 20 21 22 22 22 21 20 19 18 18 18 17 17 17 17 16 15 14 14 13 13 14 14 15 16 17 18 18 17 15 13 12 11 11 11 12 12 13 14 16 18 19 20 22 23 24 24 24 24 25 26 25 24 22 21 20 19 19 19 18 16 14 14 14 14 15 16 17 17 17 16 15 13 13 12 12 13 13 13 12 12 11
19 20 20 20 20 20 21 20 19 18 18 18 18 18 17 17 17 16 16 15 14 14 14 13 13 13 14 16 18 20 21 20 18 16 14 12 12 11 12 13 13 14 15 16 18 20 21 21 22 21 21 20 21 22 23 23 22 21 20 18 17 17 17 17 16 15 15 15 16 17 17 17 17 16 14 12 10 9 9 9 9 9 8 8 8 8
19 19 19 19 19 19 19 18 18 18 18 18 18 18 17 17 16 16 15 15 14 14 14 13 13 13 14 16 19 21 22 21 19 16 14 12 12 11 12 12 13 14 15 16 17 18 19 19 19 18 17 17 18 20 21 21 21 20 19 18 17 17 16 16 16 16 16 16 16 17 17 17 16 14 12 9 8 7 7 7 7 6 6 7 7 7
18 18 18 18 18 18 18 17 18 18 19 19 19 18 17 17 16 16 15 15 14 14 14 13 13 13 14 16 19 20 21 20 19 17 15 14 13 12 12 12 13 14 15 15 15 15 15 15 15 15 15 16 17 18 19 19 19 19 19 18 18 18 18 17 16 16 15 15 16 16 16 16 14 12 11 9 9 8 8 8 8 8 7 7 8 9
18 18 18 17 17 17 17 17 18 18 19 19 18 18 17 17 16 16 15 14 14 14 14 13 13 13 14 16 17 18 19 20 19 18 16 15 15 14 14 14 14 14 14 14 13 13 12 12 12 12 13 16 17 17 16 16 17 18 19 19 19 18 17 16 15 14 14 14 15 15 15 14 13 12 11 10 9 9 9 9 9 9 9 9 10 11
17 18 18 17 17 16 17 17 18 19 19 18 18 18 17 17 16 16 15 14 13 14 14 13 13 13 15 16 17 18 18 18 18 18 17 16 16 15 15 15 15 14 14 13 12 11 10 9 8 9 11 13 14 14 14 14 15 16 17 18 17 16 15 14 13 13 13 13 13 13 13 12 12 11 11 10 9 8 8 7 8 9 10 11 12 13
17 18 18 18 18 18 18 18 18 18 18 17 17 17 17 17 16 15 14 13 12 12 12 12 13 14 15 16 17 18 17 18 18 18 17 16 15 15 15 15 15 15 14 13 12 10 8 6 5 6 8 10 10 11 12 13 13 14 15 15 16 15 14 13 14 14 14 13 12 12 11 11 10 10 10 9 9 8 7 7 7 8 11 13 13 13
17 18 18 19 19 19 19 18 17 17 16 16 16 16 17 17 17 15 13 12 12 12 11 12 13 15 16 17 17 17 17 17 17 17 16 15 14 14 15 15 15 15 15 15 14 13 9 6 4 4 6 7 8 9 11 12 12 12 13 13 14 14 15 15 16 16 15 14 12 11 11 10 10 9 9 9 8 8 7 7 8 9 11 13 13 12
17 18 18 19 19 19 18 17 16 16 16 16 16 16 16 17 16 15 13 12 11 12 12 14 15 16 15 16 16 16 17 17 17 16 15 13 13 13 14 14 14 15 16 17 17 16 14 12 9 6 5 6 8 10 11 12 12 13 12 12 12 13 15 16 16 16 15 14 13 13 12 11 10 9 9 8 7 7 7 8 9 10 12 12 12 10
Wind_Direction
295 297 299 300 301 302 302 303 304 303 304 305 306 307 309 309 308 308 308 307 306 306 306 306 305 305 305 305 306 308 309 310 312 313 313 314 315 316 316 315 313 310 306 302 298 295 292 291 290 290 289 288 287 286 284 282 281 281 280 278 276 273 272 271 270 269 269 269 268 267 267 267 267 267 268 268 268 267 266 266 266 265 264 264 265 265
297 298 300 301 302 302 301 302 302 302 302 303 305 307 308 309 308 307 307 306 305 304 304 303 302 302 301 301 302 303 304 306 308 310 312 314 316 317 319 319 318 315 310 305 301 297 294 292 290 290 289 288 288 286 285 283 282 281 280 279 278 276 274 272 271 270 269 269 270 270 270 271 270 270 271 271 271 270 269 269 269 269 268 267 268 268
298 299 301 302 302 301 300 301 302 302 302 303 304 306 308 308 307 306 305 305 304 302 302 301 300 300 299 299 299 300 301 304 307 309 311 313 315 317 319 320 320 318 313 308 303 300 296 293 292 291 290 289 289 288 288 287 286 285 284 283 282 281 279 277 275 274 273 272 272 272 273 273 273 272 272 272 272 271 270 269 269 270 270 270 270 270
298 299 300 301 301 300 299 301 302 303 303 304 305 306 306 305 303 302 302 302 301 301 301 300 300 299 299 298 298 300 302 304 306 308 310 312 314 316 317 318 318 316 312 307 304 300 298 296 294 292 292 291 290 290 289 289 288 287 286 285 285 284 283 281 280 278 277 275 274 274 273 273 272 272 271 271 270 269 269 268 268 268 268 268 268 268
296 297 299 301 301 300 300 302 303 305 306 305 305 305 304 301 300 300 301 301 301 300 300 300 299 298 298 298 299 301 302 304 305 306 308 310 312 313 313 313 313 310 306 304 302 300 298 296 295 294 293 291 290 289 287 287 286 285 285 284 283 283 282 281 280 279 277 276 274 273 272 271 270 270 270 270 269 269 268 268 268 268 267 266 266 266
295 297 298 299 300 300 301 303 305 306 307 306 304 303 302 300 300 300 300 300 300 300 300 299 298 297 298 298 300 302 304 304 304 304 305 306 307 307 307 307 306 304 301 300 299 298 297 296 295 294 294 293 291 289 286 284 283 282 281 281 280 279 279 278 277 277 275 274 273 271 270 269 268 268 268 268 268 268 267 267 267 267 267 266 266 266
296 297 298 299 299 300 301 303 304 305 305 304 303 302 301 300 299 299 299 300 301 301 300 299 298 297 298 300 302 304 305 304 303 301 301 302 301 300 301 301 300 300 299 298 298 297 296 296 296 296 297 298 297 295 293 289 285 283 281 281 280 279 278 277 276 276 275 274 274 272 271 269 268 267 267 267 267 267 266 266 266 266 266 267 266 266
296 297 298 299 300 301 301 301 301 302 302 301 302 302 302 299 298 299 300 301 301 302 301 300 299 297 298 300 303 305 305 303 301 299 298 299 299 299 299 299 299 298 298 298 298 297 297 297 298 300 302 304 304 303 302 298 294 289 286 285 283 281 280 279 278 276 275 275 274 273 272 271 269 268 267 267 267 266 266 266 265 265 266 266 267 267
294 296 298 299 300 301 301 301 300 299 299 299 300 300 301 300 300 300 300 300 300 300 300 299 298 297 298 299 301 302 302 300 297 296 296 297 298 299 300 300 300 299 298 298 298 299 297 297 298 302 306 309 311 311 310 305 299 294 290 287 286 284 283 282 280 278 277 275 274 273 272 270 269 268 267 265 265 265 264 265 265 265 265 265 266 267
293 295 297 298 299 298 299 299 299 298 299 300 300 300 299 299 300 301 300 298 298 297 297 296 297 298 299 299 298 298 297 294 292 293 295 298 300 301 301 301 300 299 297 297 298 297 297 297 299 304 308 312 316 317 316 310 303 297 291 288 286 285 284 283 282 281 280 278 276 275 273 271 269 267 266 265 264 263 262 263 263 264 265 266 266 267
296 296 296 297 298 298 297 296 297 300 303 305 305 304 301 299 299 300 299 298 297 296 295 294 295 298 300 301 299 296 292 289 289 292 297 300 302 302 301 300 298 297 296 295 295 294 294 296 300 303 307 311 315 318 319 316 310 303 296 290 287 285 285 284 283 282 281 280 279 278 276 275 273 271 270 269 268 266 264 265 265 266 268 269 270 271
294 295 295 296 297 298 298 298 300 304 306 308 307 305 303 301 300 299 297 296 295 294 293 293 295 299 303 306 304 298 290 287 290 296 300 302 303 303 301 299 296 293 291 291 292 293 295 296 298 301 305 309 313 317 319 320 318 313 306 299 294 291 290 289 288 286 284 282 280 279 278 277 277 276 275 273 272 271 270 270 270 271 272 273 274 275
292 294 295 296 297 298 300 301 303 305 306 305 303 301 299 299 299 298 296 295 294 294 295 296 298 301 304 306 304 299 292 291 294 297 300 301 302 301 298 295 292 290 290 293 296 298 299 299 299 302 306 310 313 316 318 320 320 319 316 311 307 303 301 300 298 295 291 286 283 280 279 278 277 276 275 275 274 273 273 273 273 274 275 276 277 278
293 295 296 296 296 298 300 301 301 301 299 297 295 294 294 295 295 295 294 295 295 296 298 299 300 300 301 301 300 296 292 292 293 296 296 295 294 292 290 289 291 297 305 310 310 308 306 305 305 306 309 311 313 315 316 317 317 317 317 315 312 310 308 306 305 303 299 294 289 285 282 279 278 276 275 274 274 273 273 273 274 274 275 276 277 279
294 295 295 295 295 296 297 297 296 295 296 295 295 295 296 296 295 294 293 293 294 295 297 299 299 299 298 298 297 294 290 288 288 290 290 288 287 287 287 288 294 303 312 314 312 309 308 307 307 306 307 308 310 311 311 312 313 313 313 313 311 309 308 307 307 306 304 301 297 292 286 282 279 277 276 274 273 272 272 272 272 273 274 276 278 280
294 294 294 294 294 295 295 295 294 294 295 297 298 298 298 298 297 296 294 293 294 296 298 299 300 300 298 297 295 291 285 281 282 284 284 284 286 290 296 299 302 304 306 307 306 305 305 304 303 302 301 302 303 304 305 306 308 308 308 308 307 306 304 304 304 304 304 303 302 298 293 287 282 278 276 275 273 271 271 270 270 270 272 274 278 281
293 293 293 294 294 294 295 296 295 293 294 297 300 300 299 298 297 296 294 294 295 296 296 296 296 296 298 297 294 288 279 278 281 286 289 294 300 305 308 308 307 306 305 304 303 302 301 300 299 298 297 296 296 296 297 299 301 302 302 302 300 299 298 298 298 298 299 300 300 300 297 290 285 281 277 276 273 272 271 270 270 270 271 273 277 279
291 291 292 292 292 293 295 296 295 293 294 297 299 299 297 295 294 294 294 293 292 291 290 290 289 289 290 291 291 290 290 296 301 304 306 307 308 310 310 309 307 306 305 303 302 301 301 299 298 297 295 293 291 290 291 294 295 296 296 295 294 293 292 292 292 293 293 294 294 295 294 291 287 282 280 277 274 271 270 269 269 270 271 273 276 277
289 290 290 291 292 293 295 294 293 292 293 294 295 294 293 292 292 292 291 290 288 287 286 286 286 286 287 291 297 303 308 312 313 312 310 308 307 308 308 306 303 301 301 301 301 302 302 302 301 299 296 293 291 290 289 290 291 292 292 292 291 290 289 288 288 289 289 289 289 289 289 288 285 282 280 276 273 271 269 269 268 269 270 273 276 277
287 287 288 289 292 294 294 293 291 290 290 290 290 290 289 290 291 291 290 290 288 287 287 288 290 295 300 305 308 310 313 315 315 311 306 303 303 304 304 303 301 299 299 300 302 303 304 303 302 300 297 294 291 289 287 286 286 287 288 289 289 288 287 285 285 286 287 286 286 285 285 283 282 280 278 275 272 270 268 268 267 268 270 273 276 277
282 282 284 287 290 292 292 290 289 287 287 288 289 289 289 290 291 291 291 291 292 295 301 306 310 311 311 311 310 310 312 312 309 305 303 301 301 300 301 300 299 299 299 300 302 303 303 302 300 298 296 293 292 290 287 286 285 285 285 285 285 284 283 283 283 284 285 285 285 284 283 281 279 277 275 273 271 269 267 267 267 267 270 274 276 277
277 279 283 287 290 291 291 290 289 288 289 291 291 290 290 289 288 287 288 294 303 310 313 313 313 312 310 307 305 305 307 306 304 302 301 298 297 297 298 298 298 298 299 300 301 302 301 299 296 295 293 293 292 292 291 291 290 287 283 281 280 279 280 280 281 281 282 283 283 283 282 280 277 274 272 270 269 268 267 267 267 268 272 277 279 278
276 278 282 289 294 295 295 294 293 292 293 295 294 292 290 285 282 284 293 305 311 313 312 312 312 310 307 304 303 304 305 304 304 301 297 293 292 294 297 299 299 298 298 299 300 300 298 296 294 293 292 292 292 292 292 290 287 283 279 276 275 276 276 277 278 279 280 281 281 281 281 279 276 272 269 267 267 266 267 267 267 269 272 277 279 279
278 278 282 290 295 297 297 296 295 295 295 295 294 291 287 285 287 295 304 310 312 313 313 312 311 308 306 305 304 304 303 303 302 299 293 290 290 293 297 299 300 299 298 298 299 298 297 295 294 293 292 292 292 291 289 287 284 281 279 278 278 278 279 279 280 281 282 281 280 279 278 277 274 270 267 264 264 265 266 266 267 268 270 274 277 278
280 283 287 292 295 296 296 295 293 292 291 290 288 288 291 297 304 308 311 312 312 312 311 309 307 305 304 304 303 301 299 300 299 295 291 290 291 293 295 297 299 299 298 298 298 298 297 295 294 293 293 293 292 292 291 291 290 290 289 289 288 288 286 286 285 283 281 280 279 277 276 275 272 268 265 262 262 263 264 265 266 267 268 271 273 275
284 288 291 293 293 292 291 290 288 286 284 283 283 288 299 308 311 311 311 311 310 310 309 307 304 303 302 302 300 298 297 297 295 292 290 290 292 293 294 296 297 297 297 297 298 298 297 296 295 295 295 295 296 297 299 299 300 299 297 295 292 290 287 286 282 278 274 272 272 273 273 273 270 267 264 262 261 262 263 264 265 266 267 268 270 271
291 293 294 293 292 290 288 286 283 280 279 280 286 296 305 310 310 310 308 308 309 308 307 305 303 301 301 299 296 295 294 293 291 290 290 290 291 292 293 296 297 297 297 298 298 298 298 297 297 298 298 300 302 305 306 305 303 299 295 293 291 290 290 287 281 276 272 268 267 268 269 271 270 267 264 262 261 262 262 263 264 265 266 267 268 269
296 297 296 295 294 293 290 286 283 282 286 294 301 306 309 311 311 310 308 308 308 307 304 302 300 299 298 296 294 292 292 290 290 291 292 291 290 290 293 296 298 298 299 299 300 300 299 299 299 300 302 305 307 309 307 304 301 298 296 297 299 301 302 301 301 301 298 290 276 266 264 265 267 266 264 261 260 260 261 261 263 264 266 267 268 269
299 298 296 295 295 296 296 295 296 300 306 310 311 311 311 312 311 309 308 309 309 307 304 301 299 297 295 294 293 292 291 291 292 294 294 292 290 290 293 295 298 299 301 303 304 304 302 301 303 305 306 308 307 305 303 301 298 297 297 299 302 304 306 306 308 310 310 304 290 273 263 261 263 266 265 263 261 260 261 262 264 266 267 268 270 271
300 297 295 295 297 300 303 306 308 310 312 313 312 311 310 311 311 311 312 312 310 307 302 300 297 295 294 294 294 294 292 292 294 295 293 292 292 293 294 297 298 300 303 306 307 307 306 305 306 306 306 305 303 302 302 302 302 302 301 302 303 305 306 307 308 308 307 302 293 280 271 267 267 269 268 266 264 264 264 266 267 268 269 270 271 273
299 298 298 301 303 305 306 307 308 309 311 311 309 307 306 307 309 310 312 311 310 306 302 298 296 294 293 293 293 293 292 291 293 294 293 294 294 294 296 298 299 301 303 305 307 307 307 306 306 305 304 303 304 305 307 309 310 309 309 309 310 310 310 310 308 306 303 298 292 285 279 274 272 271 270 269 267 267 267 269 269 270 270 271 272 273
300 303 306 307 307 307 307 306 306 307 307 306 304 302 301 302 305 307 309 309 308 306 302 298 296 294 292 290 288 287 287 289 292 294 295 295 294 295 297 298 299 300 301 301 301 301 302 303 303 305 306 307 308 310 314 315 314 312 311 311 311 312 313 313 311 308 304 299 295 291 284 279 276 273 271 270 269 269 268 269 269 270 271 271 272 273
303 307 308 308 307 306 305 304 304 303 303 301 299 298 298 300 302 305 307 306 305 303 300 297 295 293 291 289 287 285 285 288 292 296 297 295 295 295 296 297 297 298 299 300 299 298 298 298 301 304 307 309 309 310 312 313 313 312 310 309 308 308 310 311 310 308 305 301 298 294 289 284 280 276 273 272 272 271 269 268 268 268 269 270 271 272
302 303 303 303 303 302 302 301 300 299 298 296 294 295 296 299 301 303 304 303 301 299 296 293 291 290 289 289 288 287 287 289 293 296 295 293 293 294 295 295 296 297 300 302 303 303 301 300 301 303 304 306 308 309 309 310 311 311 311 309 307 307 308 308 308 306 305 302 299 296 293 290 285 281 277 274 272 270 268 266 265 263 263 264 266 267
299 299 299 300 300 300 300 299 297 295 293 291 291 293 296 298 300 301 301 300 299 297 294 291 289 288 287 287 287 287 287 290 293 295 294 292 291 292 294 295 296 298 301 303 305 305 303 302 302 302 303 304 306 307 308 309 310 311 312 312 311 310 310 310 309 308 307 305 303 300 297 293 288 283 279 276 273 269 266 262 260 257 256 256 257 258
298 298 298 299 299 299 299 298 296 294 292 291 292 294 296 298 299 300 300 299 298 297 295 294 292 290 287 285 285 285 288 292 296 297 296 294 293 293 294 295 296 299 302 303 304 303 302 301 302 302 303 303 304 305 307 310 311 312 312 314 315 316 316 316 315 312 310 308 305 302 298 294 288 281 277 277 276 273 268 263 259 256 255 253 253 252
298 298 298 298 299 299 298 297 295 294 292 292 293 295 298 300 302 302 302 301 301 300 299 299 297 294 291 288 287 288 291 295 298 299 299 297 296 295 294 294 296 299 302 303 303 302 300 299 300 301 302 301 302 303 306 308 310 311 311 313 315 318 320 322 321 318 314 310 307 306 305 303 298 289 281 276 275 275 272 267 263 260 258 257 257 255
297 297 298 299 299 299 297 295 293 291 290 291 295 299 302 305 306 306 306 305 305 304 304 303 302 300 298 295 293 293 296 298 302 304 304 301 297 295 295 296 300 304 306 305 302 301 299 298 298 299 300 301 301 302 304 306 308 308 310 313 315 318 320 323 323 321 316 311 309 310 314 316 314 309 300 292 285 280 277 272 269 266 264 263 263 264
297 297 299 300 300 298 295 291 288 287 290 295 301 305 307 308 309 309 310 309 308 307 306 305 305 304 303 302 301 302 305 309 313 315 314 310 306 304 304 305 307 308 308 306 302 299 298 297 297 297 298 300 301 303 305 306 307 308 310 313 315 317 319 321 322 320 316 313 313 315 319 320 318 314 311 306 300 295 291 285 279 273 270 269 269 271
298 299 300 302 301 297 291 286 286 290 296 302 306 308 310 312 313 314 313 311 309 308 307 308 309 310 311 312 312 314 317 320 323 324 323 320 317 314 312 309 307 305 304 302 300 298 297 297 298 299 299 299 299 301 305 306 307 308 309 311 312 314 316 318 319 320 321 320 320 320 318 316 314 312 310 306 300 295 291 288 284 280 278 276 276 275
298 299 300 301 301 298 295 293 295 299 304 306 308 310 313 316 318 317 315 313 311 311 311 313 315 317 317 317 316 316 317 319 321 322 323 322 321 317 311 306 302 300 299 297 295 295 296 298 299 300 300 300 301 302 303 305 307 309 309 308 309 311 314 317 320 323 326 327 325 321 317 316 316 316 314 307 298 289 282 278 276 277 278 278 277 275
297 297 299 299 299 298 298 299 302 305 307 309 312 315 317 319 317 315 314 313 313 313 314 316 316 314 311 310 308 308 309 311 313 315 318 322 322 319 313 307 303 300 298 297 297 297 299 300 300 300 300 301 302 303 304 307 309 311 310 309 310 313 316 319 324 329 332 334 333 329 325 322 321 320 316 308 299 288 281 275 274 275 276 277 277 275
296 297 298 298 297 296 297 300 304 308 312 315 318 319 319 318 316 315 313 312 312 312 313 312 309 306 303 303 302 302 304 306 309 313 317 323 326 325 320 316 313 310 307 305 304 303 302 300 298 298 299 302 304 305 306 309 312 314 314 314 314 314 314 320 330 340 344 345 343 338 331 326 322 318 313 308 302 295 288 283 280 279 279 279 279 279
296 298 300 300 299 299 301 304 309 314 318 320 320 320 320 319 317 316 313 311 310 310 310 308 303 300 300 301 303 305 306 309 311 314 318 322 324 322 317 313 310 308 305 302 301 300 298 296 296 298 302 307 308 309 309 311 314 317 319 321 320 316 314 321 332 341 344 345 341 335 329 325 321 318 315 311 306 302 297 293 290 289 289 288 288 288
297 299 301 301 301 301 303 307 312 316 319 320 320 320 321 320 318 315 311 310 310 310 308 305 301 301 303 305 307 309 310 312 314 315 315 315 313 309 305 301 299 296 294 292 291 292 293 295 298 303 309 312 313 312 311 313 315 319 323 324 322 320 321 326 330 333 333 333 330 326 323 322 322 322 323 322 322 319 317 315 313 313 314 315 312 308
298 300 301 300 299 298 300 304 309 314 316 318 319 320 321 321 318 314 311 311 311 309 306 302 301 304 307 308 310 311 313 315 316 316 314 312 309 305 302 299 297 295 295 295 296 297 297 299 303 308 312 315 316 316 317 318 321 324 327 327 323 320 318 319 320 321 322 321 320 319 320 321 323 325 329 335 340 341 339 337 334 332 330 325 318 311
298 299 301 300 298 296 297 301 306 310 313 315 317 318 319 319 317 314 313 312 310 306 302 299 301 304 307 309 311 313 314 315 316 317 315 313 312 312 311 309 308 308 308 310 311 311 308 306 306 309 312 313 313 317 325 332 334 334 333 332 327 321 316 315 315 316 316 316 316 317 319 321 323 326 331 338 344 346 344 342 339 335 329 322 315 311
298 299 300 299 296 295 296 300 305 309 312 313 314 315 315 316 315 314 313 311 306 301 297 297 300 304 307 309 311 312 314 314 315 316 315 315 315 316 316 316 317 319 322 325 326 323 316 308 304 308 314 316 316 320 332 341 343 342 341 340 336 331 327 327 327 326 324 322 321 322 323 325 327 329 332 336 341 343 343 341 338 332 324 319 317 317
298 298 298 296 295 294 296 300 304 308 310 310 310 310 310 312 313 313 312 309 304 298 294 294 298 303 307 310 312 313 314 314 314 315 315 315 316 317 319 321 324 327 331 335 339 338 331 316 308 315 324 329 331 335 341 343 344 346 349 351 352 351 350 348 345 342 340 338 336 335 335 335 335 335 337 339 341 341 340 336 329 320 313 313 317 321
297 297 297 296 295 294 296 299 303 306 307 307 306 306 306 309 312 314 315 311 303 294 290 290 295 302 308 311 313 314 314 315 315 316 318 319 319 321 324 328 332 335 338 343 347 351 353 355 353 344 339 339 341 341 339 340 344 350 355 0 2 359 355 351 349 350 351 352 352 351 349 347 345 345 346 346 344 338 332 323 313 305 303 309 316 324
298 298 298 297 295 294 295 297 300 302 303 305 305 305 305 306 310 313 314 307 298 291 288 290 296 303 309 312 313 314 314 315 316 318 322 323 324 326 330 335 339 342 344 346 350 354 357 1 3 4 356 341 333 332 335 340 345 349 353 359 0 356 351 348 349 352 356 358 359 359 358 356 355 354 351 345 336 324 314 305 300 299 302 312 322 331
Height
1473 1471 1471 1470 1468 1466 1465 1464 1464 1462 1461 1459 1458 1457 1456 1455 1454 1453 1452 1451 1450 1449 1448 1446 1445 1444 1443 1442 1441 1440 1440 1439 1438 1437 1436 1436 1435 1434 1433 1431 1431 1430 1428 1427 1426 1425 1425 1424 1423 1422 1421 1421 1420 1420 1419 1419 1418 1418 1418 1417 1417 1416 1416 1416 1416 1415 1415 1415 1414 1414 1414 1414 1414 1414 1414 1414 1413 1413 1413 1414 1413 1413 1413 1413 1413 1413
1471 1470 1469 1468 1467 1465 1463 1462 1462 1461 1460 1458 1457 1456 1455 1453 1452 1451 1450 1449 1449 1448 1446 1445 1444 1443 1442 1441 1440 1439 1438 1437 1436 1436 1435 1434 1433 1432 1431 1430 1429 1428 1427 1426 1425 1424 1423 1422 1421 1421 1420 1419 1418 1418 1417 1416 1416 1416 1415 1415 1414 1414 1414 1414 1413 1413 1413 1412 1412 1412 1412 1411 1412 1412 1411 1411 1411 1411 1411 1411 1411 1411 1411 1411 1411 1411
1470 1468 1467 1466 1465 1464 1462 1461 1460 1460 1458 1456 1455 1454 1453 1452 1451 1450 1449 1448 1447 1446 1445 1444 1443 1442 1441 1440 1439 1438 1437 1436 1435 1434 1433 1432 1431 1430 1429 1428 1427 1426 1425 1424 1423 1422 1421 1421 1420 1419 1418 1417 1416 1416 1416 1415 1414 1414 1413 1413 1412 1412 1411 1411 1411 1411 1411 1411 1410 1410 1410 1410 1410 1410 1410 1410 1409 1409 1410 1409 1410 1410 1409 1409 1409 1409
1468 1467 1465 1464 1463 1462 1461 1460 1458 1457 1456 1455 1453 1452 1451 1451 1449 1448 1447 1446 1445 1444 1444 1443 1442 1441 1439 1438 1437 1436 1435 1434 1433 1432 1431 1430 1429 1428 1427 1426 1426 1425 1424 1423 1422 1421 1420 1419 1418 1417 1417 1416 1415 1415 1414 1413 1413 1412 1412 1411 1411 1410 1410 1410 1409 1409 1409 1408 1408 1408 1408 1408 1408 1408 1407 1407 1407 1407 1407 1407 1408 1408 1408 1408 1408 1407
1467 1466 1464 1462 1461 1460 1458 1458 1457 1455 1454 1453 1452 1451 1450 1449 1448 1447 1446 1445 1444 1443 1442 1441 1440 1439 1438 1436 1435 1434 1433 1432 1431 1431 1430 1429 1428 1427 1426 1425 1424 1423 1422 1421 1421 1420 1419 1418 1417 1416 1415 1415 1414 1413 1412 1412 1411 1411 1410 1409 1409 1408 1408 1408 1407 1407 1407 1406 1406 1406 1406 1405 1405 1405 1405 1405 1405 1405 1405 1405 1405 1405 1405 1405 1405 1405
1465 1464 1462 1461 1460 1458 1456 1456 1455 1454 1452 1451 1451 1450 1449 1448 1447 1446 1444 1443 1442 1441 1440 1439 1438 1437 1436 1435 1434 1432 1432 1431 1430 1429 1428 1427 1426 1426 1425 1424 1423 1422 1421 1420 1419 1418 1417 1416 1416 1415 1414 1413 1412 1411 1411 1410 1409 1409 1408 1407 1407 1406 1406 1406 1405 1405 1405 1404 1404 1404 1404 1403 1403 1403 1403 1403 1403 1403 1403 1403 1403 1403 1403 1403 1403 1403
1462 1462 1461 1460 1458 1456 1456 1454 1454 1453 1452 1451 1449 1448 1447 1446 1445 1444 1443 1442 1441 1440 1438 1437 1436 1435 1434 1433 1432 1431 1430 1429 1428 1427 1427 1426 1426 1425 1424 1423 1422 1421 1420 1419 1418 1417 1416 1415 1414 1413 1413 1412 1411 1410 1409 1408 1408 1407 1406 1406 1405 1405 1404 1404 1403 1403 1402 1402 1402 1402 1402 1401 1401 1401 1401 1401 1401 1401 1401 1401 1401 1401 1401 1401 1401 1401
1461 1460 1460 1459 1457 1455 1454 1453 1453 1452 1451 1450 1449 1447 1446 1444 1443 1442 1441 1440 1439 1438 1437 1436 1434 1433 1433 1431 1431 1430 1429 1428 1427 1426 1426 1425 1424 1423 1422 1421 1420 1419 1418 1417 1416 1415 1414 1413 1413 1412 1411 1411 1410 1409 1408 1407 1406 1406 1405 1404 1404 1403 1403 1402 1402 1401 1401 1401 1400 1400 1400 1400 1400 1399 1400 1400 1399 1399 1399 1399 1399 1399 1399 1399 1399 1399
1460 1458 1457 1457 1456 1455 1452 1451 1451 1451 1451 1449 1448 1446 1444 1442 1441 1440 1439 1438 1438 1437 1436 1434 1433 1432 1431 1431 1430 1428 1427 1426 1426 1425 1424 1423 1422 1421 1420 1418 1417 1416 1416 1415 1414 1413 1412 1412 1411 1411 1410 1409 1409 1408 1407 1406 1405 1405 1404 1403 1402 1402 1401 1401 1400 1400 1400 1399 1399 1399 1398 1398 1398 1398 1398 1398 1398 1398 1398 1398 1398 1398 1398 1397 1397 1397
1459 1458 1456 1455 1455 1454 1452 1450 1449 1449 1449 1448 1446 1445 1443 1441 1440 1438 1437 1437 1436 1436 1435 1433 1432 1431 1430 1429 1428 1427 1426 1424 1424 1423 1423 1421 1420 1419 1418 1417 1416 1415 1414 1413 1412 1411 1411 1410 1410 1409 1408 1408 1407 1406 1406 1405 1404 1403 1402 1402 1401 1401 1400 1399 1399 1398 1398 1398 1397 1397 1397 1397 1396 1396 1396 1396 1396 1396 1396 1396 1396 1396 1396 1396 1396 1396
1457 1456 1455 1454 1453 1452 1451 1450 1448 1447 1446 1446 1444 1442 1442 1441 1440 1438 1436 1435 1434 1434 1433 1432 1431 1431 1429 1427 1426 1425 1424 1423 1422 1421 1421 1420 1418 1417 1416 1415 1414 1413 1412 1411 1411 1410 1410 1409 1408 1408 1407 1406 1406 1405 1405 1404 1403 1402 1401 1401 1400 1399 1399 1398 1398 1397 1397 1396 1396 1396 1396 1395 1395 1395 1395 1395 1394 1394 1394 1394 1394 1394 1394 1394 1394 1394
1456 1455 1454 1453 1451 1450 1449 1448 1446 1445 1445 1444 1442 1441 1440 1440 1440 1438 1436 1434 1433 1432 1431 1430 1429 1429 1428 1426 1424 1422 1422 1421 1420 1420 1419 1418 1417 1416 1415 1414 1413 1412 1411 1410 1409 1409 1408 1408 1407 1407 1406 1405 1405 1404 1403 1402 1402 1401 1401 1400 1399 1398 1397 1397 1396 1396 1395 1395 1394 1394 1394 1394 1393 1393 1393 1393 1393 1392 1392 1392 1392 1392 1392 1392 1392 1392
1455 1454 1453 1451 1450 1449 1448 1446 1445 1444 1443 1443 1442 1441 1440 1439 1439 1438 1436 1433 1432 1431 1430 1428 1426 1426 1425 1425 1423 1421 1420 1419 1419 1418 1417 1416 1415 1415 1413 1412 1411 1410 1409 1408 1408 1407 1407 1406 1406 1405 1405 1404 1403 1402 1402 1401 1401 1400 1399 1399 1398 1397 1396 1396 1395 1394 1394 1393 1393 1392 1392 1392 1392 1391 1391 1391 1391 1391 1391 1391 1391 1390 1390 1390 1390 1390
1454 1453 1451 1450 1449 1447 1446 1446 1445 1444 1443 1442 1441 1440 1439 1438 1437 1436 1434 1432 1431 1430 1429 1427 1424 1423 1422 1422 1422 1421 1419 1418 1417 1416 1416 1415 1414 1413 1411 1410 1409 1408 1407 1407 1406 1406 1406 1406 1405 1404 1403 1402 1401 1401 1400 1400 1399 1398 1398 1397 1397 1396 1396 1395 1394 1393 1392 1391 1391 1391 1390 1390 1390 1390 1390 1390 1389 1389 1389 1389 1389 1389 1388 1388 1388 1388
1452 1451 1450 1449 1447 1446 1446 1445 1444 1442 1441 1441 1440 1439 1437 1436 1435 1434 1433 1431 1429 1428 1427 1425 1422 1421 1421 1420 1420 1419 1418 1417 1416 1414 1413 1412 1412 1411 1410 1409 1408 1407 1407 1406 1406 1405 1405 1405 1404 1403 1402 1401 1400 1400 1399 1398 1397 1397 1396 1396 1395 1395 1394 1393 1393 1392 1391 1390 1390 1389 1389 1388 1388 1388 1387 1387 1387 1387 1387 1387 1387 1387 1386 1386 1386 1386
1451 1451 1449 1447 1446 1445 1444 1443 1442 1441 1439 1438 1438 1437 1435 1434 1432 1432 1431 1429 1427 1426 1425 1423 1421 1419 1418 1418 1418 1418 1417 1415 1413 1412 1411 1410 1410 1410 1409 1408 1407 1406 1406 1405 1405 1404 1404 1403 1402 1401 1401 1400 1399 1398 1397 1397 1396 1395 1395 1394 1393 1393 1392 1391 1391 1390 1390 1389 1388 1387 1387 1386 1386 1386 1386 1386 1386 1386 1385 1385 1385 1385 1385 1385 1385 1384
1450 1449 1447 1446 1444 1443 1442 1442 1441 1439 1437 1436 1436 1435 1434 1433 1431 1430 1429 1427 1426 1425 1423 1422 1421 1418 1416 1416 1416 1416 1415 1413 1411 1411 1410 1409 1408 1408 1408 1407 1406 1404 1404 1403 1403 1402 1402 1401 1401 1400 1399 1398 1398 1397 1396 1395 1395 1394 1393 1392 1391 1391 1390 1390 1389 1389 1388 1387 1386 1386 1385 1385 1385 1384 1384 1384 1384 1384 1384 1383 1383 1383 1383 1383 1383 1383
1448 1447 1446 1445 1443 1442 1441 1441 1439 1438 1436 1436 1435 1434 1432 1431 1430 1429 1427 1426 1425 1423 1422 1421 1420 1418 1416 1414 1414 1414 1413 1412 1411 1409 1408 1407 1406 1406 1406 1405 1404 1403 1402 1401 1401 1401 1400 1399 1399 1398 1397 1396 1396 1395 1395 1393 1392 1392 1391 1391 1390 1389 1388 1388 1387 1387 1386 1386 1385 1384 1384 1383 1383 1383 1382 1382 1382 1382 1382 1382 1382 1381 1381 1381 1381 1381
1446 1445 1445 1443 1441 1440 1440 1439 1438 1437 1436 1434 1433 1432 1431 1430 1428 1427 1426 1425 1423 1422 1420 1419 1417 1416 1415 1414 1412 1412 1412 1411 1409 1408 1407 1405 1404 1404 1404 1403 1402 1401 1400 1400 1399 1398 1398 1397 1396 1396 1395 1394 1394 1393 1393 1392 1391 1390 1389 1389 1388 1387 1386 1386 1385 1385 1384 1384 1383 1382 1382 1381 1381 1381 1381 1381 1381 1381 1380 1380 1380 1380 1380 1380 1379 1379
1444 1443 1443 1442 1441 1439 1437 1437 1436 1436 1434 1433 1432 1431 1429 1427 1426 1425 1423 1422 1421 1420 1419 1418 1417 1416 1415 1413 1411 1411 1411 1410 1408 1407 1406 1404 1403 1402 1402 1401 1401 1400 1398 1397 1397 1396 1396 1395 1394 1393 1393 1392 1392 1391 1391 1390 1389 1388 1387 1386 1386 1385 1384 1383 1383 1382 1382 1381 1381 1381 1380 1380 1379 1379 1379 1379 1379 1379 1379 1378 1378 1378 1378 1378 1378 1377
1442 1441 1441 1441 1440 1438 1436 1435 1434 1434 1433 1431 1430 1429 1427 1425 1423 1422 1421 1420 1420 1419 1418 1417 1416 1415 1414 1412 1411 1410 1410 1410 1408 1406 1405 1403 1401 1401 1401 1400 1399 1398 1396 1396 1395 1395 1394 1393 1392 1391 1391 1390 1390 1389 1388 1387 1386 1386 1385 1385 1384 1383 1382 1381 1381 1380 1380 1380 1379 1378 1378 1377 1377 1377 1377 1377 1377 1377 1377 1377 1376 1376 1376 1376 1376 1376
1440 1438 1437 1438 1438 1436 1434 1433 1432 1431 1431 1430 1428 1426 1424 1423 1421 1421 1421 1420 1419 1417 1416 1415 1414 1413 1412 1411 1410 1409 1409 1409 1408 1406 1404 1402 1400 1399 1399 1399 1398 1396 1395 1394 1393 1393 1392 1391 1391 1390 1389 1388 1387 1386 1386 1385 1384 1384 1383 1382 1381 1380 1379 1379 1378 1378 1378 1377 1377 1377 1376 1376 1375 1375 1375 1375 1375 1375 1375 1375 1375 1375 1374 1374 1374 1374
1438 1436 1436 1435 1435 1434 1432 1431 1430 1429 1428 1427 1426 1424 1422 1421 1421 1420 1418 1417 1416 1415 1414 1413 1411 1411 1410 1409 1408 1407 1407 1407 1406 1405 1403 1401 1399 1398 1398 1398 1397 1395 1394 1393 1392 1391 1390 1389 1388 1387 1386 1386 1385 1384 1383 1382 1381 1381 1380 1379 1378 1377 1377 1376 1376 1376 1375 1375 1375 1375 1374 1374 1373 1373 1373 1373 1373 1373 1373 1373 1373 1373 1373 1373 1373 1372
1436 1435 1434 1433 1432 1431 1430 1429 1428 1426 1426 1425 1423 1422 1421 1421 1419 1418 1416 1415 1414 1413 1412 1411 1409 1408 1408 1407 1406 1406 1405 1405 1405 1404 1402 1400 1398 1397 1397 1397 1396 1394 1392 1391 1391 1390 1388 1387 1386 1385 1384 1383 1382 1381 1381 1380 1379 1378 1377 1376 1376 1375 1375 1374 1374 1373 1373 1373 1373 1372 1372 1371 1371 1371 1371 1371 1371 1371 1371 1371 1371 1371 1371 1371 1371 1371
1435 1434 1433 1432 1431 1430 1428 1427 1426 1425 1424 1423 1422 1421 1420 1418 1416 1415 1414 1413 1412 1411 1410 1409 1408 1407 1406 1406 1405 1404 1404 1404 1404 1403 1401 1399 1396 1395 1395 1395 1394 1393 1391 1389 1388 1387 1386 1385 1383 1382 1382 1381 1380 1379 1378 1377 1376 1375 1375 1374 1374 1373 1372 1372 1371 1371 1371 1371 1371 1370 1370 1370 1369 1369 1369 1369 1369 1370 1370 1370 1370 1370 1369 1369 1369 1369
1434 1433 1432 1431 1430 1428 1427 1426 1424 1423 1423 1422 1421 1420 1418 1416 1414 1413 1412 1412 1411 1410 1409 1408 1407 1406 1405 1404 1403 1402 1402 1402 1402 1401 1400 1398 1395 1394 1393 1393 1393 1391 1389 1387 1386 1386 1384 1382 1381 1381 1380 1379 1377 1376 1376 1375 1374 1374 1373 1372 1371 1371 1370 1369 1369 1369 1368 1368 1368 1368 1368 1367 1367 1367 1367 1367 1368 1368 1368 1368 1368 1368 1367 1367 1367 1367
1432 1431 1430 1429 1428 1426 1425 1423 1422 1421 1421 1420 1419 1417 1415 1414 1413 1412 1411 1411 1410 1409 1408 1407 1406 1404 1403 1402 1402 1401 1401 1401 1400 1399 1398 1397 1394 1392 1391 1391 1391 1389 1387 1386 1384 1383 1382 1381 1380 1379 1378 1377 1376 1375 1374 1373 1373 1372 1371 1370 1369 1368 1367 1367 1366 1366 1366 1365 1366 1366 1366 1366 1366 1366 1366 1366 1366 1366 1366 1366 1366 1366 1366 1366 1365 1365
1430 1429 1427 1426 1425 1423 1422 1421 1420 1419 1418 1417 1416 1415 1414 1413 1412 1411 1410 1409 1408 1408 1407 1406 1405 1403 1402 1401 1400 1399 1399 1398 1398 1397 1396 1395 1393 1391 1390 1390 1389 1388 1386 1384 1382 1381 1381 1380 1379 1377 1376 1375 1374 1374 1373 1373 1372 1371 1370 1368 1367 1366 1366 1365 1364 1364 1363 1363 1363 1363 1364 1364 1364 1364 1364 1364 1364 1364 1364 1364 1364 1364 1364 1364 1363 1363
1427 1426 1425 1423 1422 1421 1419 1418 1417 1416 1415 1414 1414 1413 1412 1412 1411 1410 1408 1407 1406 1406 1405 1404 1403 1402 1401 1399 1398 1397 1397 1396 1396 1396 1395 1393 1391 1390 1389 1388 1387 1386 1385 1383 1381 1379 1379 1378 1377 1376 1376 1375 1374 1373 1372 1371 1371 1370 1369 1367 1366 1365 1365 1364 1363 1362 1362 1361 1361 1361 1362 1362 1362 1362 1361 1361 1361 1361 1362 1362 1362 1362 1362 1362 1362 1361
1424 1423 1422 1421 1419 1418 1417 1416 1415 1414 1413 1413 1412 1412 1411 1410 1409 1408 1407 1406 1405 1404 1404 1403 1402 1401 1400 1398 1397 1396 1395 1395 1395 1395 1394 1392 1390 1388 1388 1387 1386 1385 1384 1382 1380 1378 1377 1376 1376 1376 1375 1374 1373 1372 1371 1370 1369 1368 1367 1366 1365 1364 1364 1363 1362 1362 1361 1361 1360 1360 1361 1361 1360 1360 1360 1360 1360 1360 1361 1361 1361 1361 1361 1360 1360 1360
1422 1421 1419 1418 1417 1416 1416 1415 1414 1413 1412 1412 1411 1410 1409 1409 1408 1407 1406 1405 1404 1403 1403 1402 1401 1400 1399 1398 1396 1395 1393 1393 1393 1393 1392 1391 1389 1387 1386 1386 1385 1384 1384 1383 1381 1379 1376 1375 1375 1375 1374 1373 1372 1371 1370 1369 1368 1367 1366 1365 1364 1363 1362 1361 1361 1360 1360 1359 1359 1359 1359 1359 1359 1359 1358 1359 1359 1359 1359 1359 1360 1359 1359 1359 1359 1359
1420 1418 1417 1416 1416 1415 1414 1413 1413 1412 1411 1410 1410 1409 1408 1407 1406 1405 1404 1404 1403 1402 1401 1401 1400 1399 1398 1397 1396 1394 1392 1391 1391 1391 1391 1389 1387 1386 1386 1385 1384 1383 1382 1382 1381 1380 1378 1375 1373 1372 1372 1371 1370 1369 1368 1368 1367 1366 1365 1364 1363 1362 1361 1361 1360 1359 1358 1358 1358 1358 1358 1357 1357 1357 1357 1357 1357 1357 1358 1358 1358 1358 1358 1358 1357 1357
1418 1416 1416 1415 1414 1414 1413 1412 1411 1411 1410 1409 1408 1408 1407 1406 1405 1404 1403 1402 1402 1401 1400 1399 1398 1397 1396 1395 1394 1393 1391 1390 1390 1390 1389 1388 1387 1385 1384 1384 1383 1382 1381 1381 1380 1380 1378 1376 1373 1371 1370 1370 1369 1368 1367 1367 1366 1366 1365 1364 1362 1361 1361 1360 1359 1359 1358 1357 1357 1357 1356 1356 1356 1356 1356 1356 1356 1356 1356 1356 1357 1357 1357 1356 1356 1356
1416 1416 1415 1414 1413 1412 1411 1411 1410 1410 1409 1408 1407 1406 1405 1405 1404 1403 1402 1401 1401 1400 1399 1398 1397 1396 1395 1394 1392 1391 1390 1389 1389 1389 1388 1387 1386 1385 1383 1383 1382 1381 1380 1380 1379 1378 1377 1375 1373 1372 1370 1369 1368 1367 1367 1366 1365 1365 1364 1363 1362 1361 1360 1359 1359 1358 1357 1357 1356 1356 1356 1355 1355 1355 1355 1355 1355 1355 1355 1355 1355 1355 1355 1355 1355 1355
1415 1414 1413 1412 1411 1411 1410 1409 1409 1408 1407 1406 1405 1404 1404 1403 1402 1401 1401 1400 1399 1398 1397 1396 1396 1395 1394 1393 1391 1390 1388 1388 1388 1388 1387 1386 1386 1384 1383 1381 1381 1380 1380 1379 1378 1377 1376 1374 1373 1372 1370 1368 1367 1366 1366 1365 1364 1364 1363 1362 1361 1360 1359 1358 1358 1357 1356 1356 1355 1355 1355 1354 1354 1354 1354 1353 1353 1353 1353 1353 1353 1353 1353 1354 1354 1353
1413 1412 1411 1411 1410 1409 1408 1407 1407 1406 1405 1404 1403 1403 1402 1402 1401 1400 1399 1398 1397 1396 1395 1394 1393 1393 1392 1391 1390 1389 1387 1386 1386 1386 1386 1385 1384 1383 1382 1381 1380 1380 1379 1378 1377 1376 1375 1373 1372 1371 1370 1369 1367 1365 1364 1364 1363 1362 1361 1361 1360 1359 1358 1358 1357 1356 1356 1355 1354 1354 1353 1353 1353 1352 1352 1352 1352 1352 1352 1352 1352 1351 1351 1352 1352 1352
1412 1411 1410 1409 1408 1407 1406 1406 1405 1404 1404 1403 1402 1401 1401 1400 1399 1398 1397 1396 1395 1394 1393 1392 1391 1391 1390 1390 1389 1387 1386 1386 1385 1385 1384 1384 1383 1382 1381 1380 1379 1379 1378 1378 1377 1376 1375 1373 1371 1370 1369 1368 1367 1365 1364 1363 1362 1361 1360 1360 1359 1358 1357 1357 1356 1356 1355 1354 1353 1353 1352 1352 1352 1351 1351 1351 1351 1351 1351 1351 1351 1350 1350 1350 1350 1350
1410 1409 1408 1407 1407 1406 1405 1404 1404 1403 1402 1401 1401 1400 1400 1399 1398 1396 1396 1394 1393 1392 1392 1391 1390 1389 1389 1388 1387 1386 1386 1385 1384 1384 1383 1383 1382 1381 1381 1379 1378 1378 1378 1377 1376 1375 1374 1373 1371 1370 1368 1367 1366 1365 1364 1362 1361 1360 1359 1358 1358 1357 1356 1356 1356 1355 1354 1353 1353 1352 1351 1351 1351 1351 1350 1350 1350 1349 1349 1349 1349 1349 1349 1349 1349 1349
1409 1408 1407 1406 1406 1405 1404 1403 1402 1401 1401 1400 1400 1399 1398 1397 1396 1395 1394 1393 1392 1391 1391 1390 1389 1388 1388 1387 1386 1386 1385 1384 1383 1383 1382 1381 1381 1380 1379 1378 1378 1377 1376 1376 1376 1375 1374 1372 1371 1370 1368 1366 1365 1364 1363 1362 1361 1360 1359 1358 1357 1356 1356 1355 1355 1354 1354 1353 1352 1351 1351 1351 1350 1350 1349 1349 1349 1348 1348 1348 1348 1348 1348 1348 1348 1347
1407 1407 1406 1405 1405 1404 1403 1402 1401 1400 1400 1399 1398 1398 1396 1396 1394 1393 1392 1391 1391 1390 1390 1389 1388 1387 1386 1386 1385 1385 1384 1383 1382 1382 1381 1380 1380 1379 1379 1378 1377 1376 1376 1376 1375 1374 1373 1371 1370 1369 1367 1366 1365 1363 1362 1361 1360 1360 1359 1357 1356 1356 1355 1355 1354 1353 1353 1352 1351 1351 1351 1350 1350 1349 1349 1348 1348 1348 1347 1347 1347 1346 1346 1346 1346 1346
1406 1406 1405 1405 1404 1403 1402 1401 1400 1399 1399 1398 1397 1396 1395 1394 1393 1392 1391 1391 1390 1389 1389 1388 1387 1386 1386 1385 1384 1384 1383 1382 1382 1381 1381 1380 1379 1379 1378 1378 1377 1376 1376 1375 1374 1373 1372 1371 1370 1368 1367 1366 1364 1363 1362 1361 1360 1359 1358 1358 1356 1356 1355 1354 1354 1353 1352 1351 1351 1351 1350 1350 1349 1349 1348 1347 1347 1346 1346 1346 1346 1345 1345 1345 1345 1345
1406 1405 1404 1403 1403 1401 1401 1400 1399 1398 1398 1397 1396 1395 1394 1393 1392 1391 1391 1390 1389 1388 1388 1387 1386 1386 1385 1384 1384 1383 1383 1382 1382 1381 1380 1379 1379 1378 1377 1377 1376 1375 1375 1374 1373 1372 1371 1370 1369 1368 1366 1365 1364 1362 1361 1360 1359 1359 1358 1357 1356 1355 1354 1353 1353 1352 1352 1351 1350 1350 1349 1349 1348 1348 1347 1346 1345 1345 1345 1345 1345 1344 1344 1344 1344 1344
1404 1403 1403 1402 1401 1400 1400 1399 1398 1397 1396 1396 1395 1394 1393 1392 1391 1391 1390 1389 1389 1388 1387 1387 1386 1386 1385 1384 1383 1382 1382 1381 1381 1380 1379 1379 1378 1377 1377 1376 1375 1375 1374 1373 1372 1371 1370 1369 1368 1367 1366 1364 1363 1362 1361 1359 1358 1358 1357 1356 1356 1355 1354 1353 1352 1352 1351 1351 1350 1349 1349 1348 1348 1347 1346 1345 1344 1344 1344 1344 1344 1343 1343 1343 1343 1343
1403 1402 1401 1401 1400 1399 1398 1398 1397 1396 1395 1395 1394 1393 1392 1391 1391 1390 1390 1389 1388 1387 1387 1386 1386 1385 1384 1383 1382 1381 1381 1380 1379 1379 1378 1378 1377 1376 1376 1375 1375 1374 1373 1373 1372 1370 1369 1368 1367 1366 1365 1363 1362 1361 1360 1359 1358 1357 1357 1356 1356 1355 1354 1353 1352 1351 1351 1350 1349 1349 1349 1348 1347 1346 1345 1345 1344 1343 1343 1343 1343 1343 1343 1343 1343 1343
1402 1401 1400 1400 1399 1398 1397 1396 1396 1395 1394 1394 1393 1392 1391 1391 1390 1390 1389 1388 1387 1387 1386 1386 1386 1384 1383 1382 1381 1380 1379 1378 1378 1377 1377 1376 1376 1376 1375 1374 1374 1373 1372 1371 1370 1369 1368 1366 1365 1364 1364 1363 1362 1361 1360 1359 1358 1357 1356 1356 1355 1354 1353 1352 1351 1351 1350 1350 1350 1349 1348 1348 1347 1346 1345 1344 1344 1343 1343 1343 1343 1343 1342 1342 1342 1342
1401 1400 1399 1399 1398 1397 1396 1396 1395 1394 1393 1393 1392 1391 1391 1390 1389 1389 1388 1387 1387 1386 1386 1386 1385 1384 1382 1381 1381 1379 1378 1377 1376 1376 1376 1375 1375 1374 1373 1373 1372 1371 1370 1369 1368 1367 1366 1366 1365 1364 1363 1362 1361 1360 1359 1359 1358 1357 1356 1355 1354 1353 1353 1352 1351 1351 1351 1350 1350 1349 1348 1347 1346 1346 1345 1344 1344 1343 1343 1343 1343 1342 1342 1342 1342 1342
1400 1399 1398 1398 1397 1396 1396 1395 1394 1393 1393 1392 1391 1390 1390 1389 1388 1388 1387 1387 1386 1386 1386 1385 1384 1383 1382 1381 1380 1379 1378 1376 1376 1375 1374 1373 1373 1372 1372 1371 1370 1370 1369 1368 1367 1366 1365 1365 1364 1363 1362 1361 1360 1360 1359 1359 1358 1357 1356 1355 1354 1353 1352 1352 1352 1351 1351 1350 1349 1348 1348 1347 1346 1346 1345 1344 1344 1344 1343 1343 1343 1342 1342 1342 1342 1342
1399 1398 1397 1397 1396 1396 1395 1394 1393 1392 1392 1391 1390 1390 1389 1388 1388 1387 1386 1386 1386 1386 1385 1384 1383 1382 1382 1381 1380 1379 1378 1376 1375 1374 1373 1372 1372 1371 1370 1370 1369 1368 1367 1366 1366 1365 1364 1364 1363 1363 1362 1361 1360 1360 1359 1359 1358 1357 1356 1355 1354 1353 1353 1352 1352 1351 1350 1349 1349 1348 1347 1347 1346 1346 1345 1344 1344 1344 1344 1344 1343 1342 1342 1342 1341 1341
1398 1397 1396 1396 1395 1394 1394 1393 1392 1391 1391 1390 1389 1389 1388 1387 1387 1386 1386 1386 1385 1385 1384 1383 1382 1382 1381 1380 1379 1378 1377 1376 1375 1374 1373 1372 1371 1370 1369 1368 1368 1367 1366 1366 1365 1364 1363 1363 1363 1362 1362 1361 1361 1360 1360 1359 1358 1357 1356 1355 1354 1354 1353 1352 1351 1351 1350 1349 1348 1348 1347 1346 1346 1346 1345 1345 1344 1344 1344 1344 1343 1343 1342 1341 1341 1341
1397 1396 1395 1395 1394 1393 1392 1392 1391 1391 1390 1390 1389 1388 1387 1386 1386 1386 1385 1385 1385 1384 1383 1382 1382 1381 1380 1379 1378 1377 1376 1375 1374 1373 1372 1371 1370 1369 1368 1368 1367 1366 1365 1364 1364 1363 1362 1362 1362 1362 1361 1361 1361 1360 1360 1358 1357 1356 1356 1355 1354 1354 1353 1352 1351 1351 1350 1349 1348 1348 1347 1346 1346 1345 1345 1345 1344 1344 1344 1344 1343 1342 1341 1341 1341 1340
1395 1395 1394 1393 1393 1392 1391 1391 1390 1390 1389 1389 1388 1387 1386 1386 1385 1385 1384 1384 1384 1383 1382 1381 1381 1381 1380 1379 1378 1377 1376 1375 1373 1372 1371 1371 1370 1369 1368 1367 1366 1366 1364 1363 1363 1362 1361 1361 1361 1361 1361 1361 1361 1360 1359 1358 1357 1356 1356 1355 1354 1354 1353 1352 1351 1351 1350 1349 1348 1347 1347 1346 1346 1345 1345 1345 1344 1344 1344 1343 1342 1342 1341 1341 1340 1340